| time (UTC) | temp F | wind direction | speed MPH | gust MPH | rain 1hr in | rain 24hr in | rain mn in | humidity % | barometer mb |
| 20260507170038 | 61 | 136 | 1.0 | 13.0 | 0.00 | 0.00 | 0.00 | 48 | 1011.2 |
| 20260507164532 | 61 | 327 | 3.0 | 8.0 | 0.00 | 0.00 | 0.00 | 48 | 1011.4 |
| 20260507163034 | 60 | 344 | 2.0 | 9.0 | 0.00 | 0.00 | 0.00 | 48 | 1011.6 |
| 20260507161533 | 60 | 350 | 4.0 | 13.0 | 0.00 | 0.00 | 0.00 | 50 | 1011.7 |
| 20260507160034 | 60 | 311 | 2.0 | 10.0 | 0.00 | 0.00 | 0.00 | 52 | 1011.8 |
| 20260507154536 | 59 | 352 | 3.0 | 9.0 | 0.00 | 0.00 | 0.00 | 53 | 1012.0 |
| 20260507153030 | 58 | 332 | 2.0 | 8.0 | 0.00 | 0.00 | 0.00 | 52 | 1012.3 |
| 20260507151530 | 58 | 325 | 2.0 | 14.0 | 0.00 | 0.00 | 0.00 | 58 | 1012.5 |
| 20260507150030 | 56 | 5 | 2.0 | 11.0 | 0.00 | 0.00 | 0.00 | 58 | 1012.6 |
| 20260507144547 | 55 | 192 | 2.0 | 10.0 | 0.00 | 0.01 | 0.00 | 58 | 1012.7 |
| 20260507143031 | 54 | 336 | 2.0 | 7.0 | 0.00 | 0.01 | 0.00 | 59 | 1012.9 |
| 20260507141535 | 54 | 331 | 2.0 | 5.0 | 0.00 | 0.01 | 0.00 | 60 | 1013.0 |
| 20260507140031 | 53 | 14 | 2.0 | 7.0 | 0.00 | 0.01 | 0.00 | 59 | 1013.4 |
| 20260507134531 | 53 | 5 | 4.0 | 9.0 | 0.00 | 0.06 | 0.00 | 60 | 1013.5 |
| 20260507133037 | 54 | 328 | 2.0 | 5.0 | 0.00 | 0.06 | 0.00 | 62 | 1013.5 |
| 20260507131532 | 53 | 0 | 0.0 | 3.0 | 0.00 | 0.06 | 0.00 | 65 | 1013.8 |
| 20260507130032 | 53 | 344 | 2.0 | 5.0 | 0.00 | 0.06 | 0.00 | 64 | 1013.7 |
| 20260507124533 | 53 | 294 | 2.0 | 8.0 | 0.00 | 0.14 | 0.00 | 64 | 1013.7 |
| 20260507123033 | 53 | 336 | 2.0 | 5.0 | 0.00 | 0.14 | 0.00 | 64 | 1013.5 |
| 20260507121535 | 52 | 360 | 1.0 | 10.0 | 0.00 | 0.14 | 0.00 | 66 | 1013.4 |
| 20260507120034 | 52 | 338 | 1.0 | 4.0 | 0.00 | 0.14 | 0.00 | 66 | 1013.4 |
| 20260507114532 | 52 | 10 | 2.0 | 8.0 | 0.00 | 0.23 | 0.00 | 67 | 1013.3 |
| 20260507113033 | 52 | 342 | 0.0 | 4.0 | 0.00 | 0.23 | 0.00 | 70 | 1013.0 |
| 20260507111541 | 52 | 0 | 1.0 | 5.0 | 0.00 | 0.23 | 0.00 | 67 | 1013.1 |
| 20260507110034 | 52 | 346 | 2.0 | 5.0 | 0.00 | 0.23 | 0.00 | 67 | 1013.1 |
| 20260507104533 | 52 | 344 | 2.0 | 6.0 | 0.00 | 0.23 | 0.00 | 69 | 1013.0 |
| 20260507103037 | 52 | 0 | 0.0 | 5.0 | 0.00 | 0.23 | 0.00 | 68 | 1012.7 |
| 20260507101538 | 52 | 0 | 1.0 | 5.0 | 0.00 | 0.23 | 0.00 | 71 | 1012.5 |
| 20260507100040 | 52 | 90 | 1.0 | 4.0 | 0.00 | 0.23 | 0.00 | 74 | 1012.3 |
| 20260507094544 | 53 | 318 | 1.0 | 6.0 | 0.00 | 0.23 | 0.00 | 75 | 1012.0 |
| 20260507093042 | 53 | 342 | 3.0 | 10.0 | 0.00 | 0.23 | 0.00 | 74 | 1012.0 |
| 20260507091536 | 53 | 335 | 4.0 | 9.0 | 0.00 | 0.23 | 0.00 | 74 | 1011.8 |
| 20260507090036 | 53 | 347 | 2.0 | 6.0 | 0.00 | 0.23 | 0.00 | 74 | 1012.0 |
| 20260507084539 | 53 | 312 | 3.0 | 8.0 | 0.00 | 0.23 | 0.00 | 74 | 1011.9 |
| 20260507083035 | 53 | 13 | 3.0 | 8.0 | 0.00 | 0.23 | 0.00 | 74 | 1011.9 |
| 20260507081539 | 54 | 352 | 3.0 | 8.0 | 0.00 | 0.23 | 0.00 | 74 | 1012.0 |
| 20260507080040 | 54 | 57 | 4.0 | 8.0 | 0.00 | 0.23 | 0.00 | 75 | 1011.7 |
| 20260507074535 | 54 | 328 | 1.0 | 5.0 | 0.00 | 0.23 | 0.00 | 75 | 1011.5 |
| 20260507073034 | 54 | 315 | 2.0 | 5.0 | 0.00 | 0.23 | 0.00 | 75 | 1011.4 |
| 20260507071535 | 54 | 338 | 2.0 | 9.0 | 0.00 | 0.23 | 0.00 | 76 | 1011.6 |
| 20260507070034 | 54 | 306 | 3.0 | 8.0 | 0.00 | 0.23 | 0.00 | 76 | 1011.6 |
| 20260507064538 | 54 | 41 | 4.0 | 10.0 | 0.00 | 0.23 | 0.00 | 76 | 1011.6 |
| 20260507063035 | 54 | 327 | 5.0 | 10.0 | 0.00 | 0.23 | 0.00 | 76 | 1011.9 |
| 20260507061535 | 55 | 350 | 3.0 | 10.0 | 0.00 | 0.23 | 0.00 | 76 | 1012.1 |
| 20260507060048 | 55 | 352 | 5.0 | 12.0 | 0.00 | 0.23 | 0.00 | 77 | 1011.9 |
| 20260507054544 | 55 | 347 | 4.0 | 9.0 | 0.00 | 0.23 | 0.00 | 78 | 1011.9 |
| 20260507053031 | 55 | 360 | 3.0 | 9.0 | 0.00 | 0.23 | 0.00 | 77 | 1011.7 |
| 20260507051531 | 55 | 0 | 3.0 | 6.0 | 0.00 | 0.23 | 0.00 | 78 | 1011.9 |
| 20260507050031 | 55 | 51 | 2.0 | 8.0 | 0.00 | 0.23 | 0.00 | 78 | 1012.1 |
| 20260507044546 | 55 | 352 | 1.0 | 7.0 | 0.00 | 0.23 | 0.00 | 79 | 1011.9 |
| 20260507043032 | 56 | 360 | 2.0 | 10.0 | 0.00 | 0.23 | 0.00 | 79 | 1011.3 |
| 20260507041532 | 56 | 233 | 3.0 | 8.0 | 0.00 | 0.23 | 0.00 | 80 | 1011.6 |
| 20260507040034 | 56 | 0 | 1.0 | 9.0 | 0.00 | 0.23 | 0.00 | 80 | 1011.4 |
| 20260507034535 | 56 | 13 | 6.0 | 13.0 | 0.00 | 0.23 | 0.23 | 80 | 1011.8 |
| 20260507033033 | 57 | 346 | 2.0 | 8.0 | 0.00 | 0.23 | 0.23 | 79 | 1011.4 |
| 20260507031532 | 58 | 288 | 2.0 | 9.0 | 0.00 | 0.23 | 0.23 | 79 | 1011.2 |
| 20260507030034 | 58 | 352 | 3.0 | 11.0 | 0.00 | 0.23 | 0.23 | 79 | 1011.3 |
| 20260507024542 | 59 | 140 | 3.0 | 10.0 | 0.00 | 0.23 | 0.23 | 80 | 1011.3 |
| 20260507023038 | 59 | 35 | 2.0 | 7.0 | 0.00 | 0.23 | 0.23 | 80 | 1010.8 |
| 20260507021537 | 60 | 304 | 0.0 | 4.0 | 0.00 | 0.23 | 0.23 | 80 | 1010.9 |
| 20260507020042 | 60 | 0 | 0.0 | 4.0 | 0.00 | 0.23 | 0.23 | 80 | 1010.7 |
| 20260507014536 | 61 | 5 | 1.0 | 5.0 | 0.00 | 0.23 | 0.23 | 80 | 1010.9 |
| 20260507013045 | 62 | 241 | 2.0 | 5.0 | 0.00 | 0.23 | 0.23 | 79 | 1010.6 |
| 20260507011532 | 62 | 351 | 3.0 | 9.0 | 0.00 | 0.23 | 0.23 | 79 | 1010.1 |
| 20260507010040 | 62 | 0 | 3.0 | 9.0 | 0.00 | 0.23 | 0.23 | 78 | 1010.7 |
| 20260507004536 | 63 | 352 | 3.0 | 10.0 | 0.00 | 0.23 | 0.23 | 78 | 1010.7 |
| 20260507003033 | 63 | 103 | 3.0 | 8.0 | 0.00 | 0.23 | 0.23 | 80 | 1010.6 |
| 20260507001538 | 64 | 343 | 0.0 | 6.0 | 0.00 | 0.23 | 0.23 | 79 | 1010.5 |
| 20260507000035 | 64 | 0 | 0.0 | 15.0 | 0.00 | 0.23 | 0.23 | 79 | 1009.9 |
| 20260506234534 | 65 | 335 | 4.0 | 10.0 | 0.00 | 0.23 | 0.23 | 80 | 1010.0 |
| 20260506233036 | 65 | 360 | 2.0 | 6.0 | 0.00 | 0.23 | 0.23 | 83 | 1009.5 |
| 20260506231531 | 65 | 9 | 2.0 | 8.0 | 0.00 | 0.23 | 0.23 | 84 | 1009.2 |
| 20260506230033 | 66 | 5 | 4.0 | 13.0 | 0.00 | 0.23 | 0.23 | 83 | 1009.1 |
| 20260506224537 | 67 | 282 | 0.0 | 2.0 | 0.00 | 0.23 | 0.23 | 85 | 1008.9 |
| 20260506223032 | 67 | 0 | 0.0 | 2.0 | 0.00 | 0.23 | 0.23 | 83 | 1008.9 |
| 20260506221534 | 68 | 0 | 0.0 | 3.0 | 0.00 | 0.23 | 0.23 | 83 | 1008.6 |
| 20260506220037 | 67 | 0 | 0.0 | 3.0 | 0.00 | 0.23 | 0.23 | 86 | 1008.5 |
| 20260506214531 | 67 | 0 | 0.0 | 0.0 | 0.00 | 0.23 | 0.23 | 85 | 1008.6 |
| 20260506213033 | 67 | 0 | 0.0 | 2.0 | 0.00 | 0.23 | 0.23 | 84 | 1008.7 |
| 20260506211535 | 67 | 255 | 0.0 | 4.0 | 0.00 | 0.23 | 0.23 | 82 | 1008.4 |
| 20260506210038 | 67 | 0 | 0.0 | 2.0 | 0.00 | 0.23 | 0.23 | 82 | 1008.2 |
| 20260506204534 | 67 | 288 | 1.0 | 8.0 | 0.00 | 0.23 | 0.23 | 81 | 1008.0 |
| 20260506203033 | 68 | 294 | 1.0 | 6.0 | 0.00 | 0.23 | 0.23 | 80 | 1008.0 |
| 20260506201534 | 67 | 300 | 3.0 | 8.0 | 0.00 | 0.23 | 0.23 | 80 | 1007.9 |
| 20260506200034 | 67 | 237 | 2.0 | 14.0 | 0.00 | 0.23 | 0.23 | 81 | 1008.1 |
| 20260506194531 | 68 | 262 | 2.0 | 7.0 | 0.00 | 0.23 | 0.23 | 81 | 1008.0 |
| 20260506193034 | 68 | 219 | 2.0 | 12.0 | 0.00 | 0.23 | 0.23 | 80 | 1008.1 |
| 20260506191536 | 69 | 305 | 2.0 | 12.0 | 0.00 | 0.23 | 0.23 | 79 | 1008.2 |
| 20260506190033 | 69 | 279 | 3.0 | 7.0 | 0.00 | 0.23 | 0.23 | 79 | 1008.3 |
| 20260506184533 | 68 | 317 | 3.0 | 9.0 | 0.00 | 0.23 | 0.23 | 80 | 1008.3 |
| 20260506183034 | 67 | 136 | 3.0 | 10.0 | 0.00 | 0.23 | 0.23 | 81 | 1008.5 |
| 20260506181535 | 67 | 201 | 2.0 | 8.0 | 0.00 | 0.23 | 0.23 | 82 | 1008.6 |
| 20260506180039 | 66 | 278 | 3.0 | 11.0 | 0.00 | 0.23 | 0.23 | 82 | 1008.6 |
| 20260506174534 | 65 | 271 | 3.0 | 11.0 | 0.00 | 0.23 | 0.23 | 83 | 1008.7 |
| 20260506173031 | 65 | 226 | 3.0 | 8.0 | 0.00 | 0.23 | 0.23 | 84 | 1008.8 |
| 20260506171547 | 65 | 230 | 2.0 | 10.0 | 0.00 | 0.23 | 0.23 | 85 | 1008.8 |